DECAYED
Showing default

ASAP-S, 44875 (Decayed)

Orbit data source: Space-Track

ASAP-S, 44875 was a payload satellite owned by CNES (FR) in LEO that was launched on Wed, 18 Dec 2019 UTC launched from the French Guiana (FRGUI). Payload-class satellites include a variety of spacecraft equipped with specific instruments for various scientific and technological missions. These include communications satellites like Starlink; space stations such as the ISS; scientific satellites like the Hubble; Earth observation satellites from companies like Planet Labs, Umbra, and HawkEye 360; GPS; miniature CubeSats for education and research; and military/defense satellites.

Loading next visibility...
Identifier
44875, 2019-092C
Orbit
Decayed
Last TLE update
1 year ago
Origin
Manufacturer
Airbus Barajas
Mission
Decayed spacecraft
Bus & Motor
DISPENSER, Unknown motor
Mass
400 kg wet, 400 kg dry
Launch date (UTC)
2019-12-18 (6 years ago)
Launch vehicle
Unknown
Launch site
French Guiana (FRGUI)
Object type
Payload
Rocket body
Debris
Shape & HBR
Irr, Unknown HBR
Radar Cross Section
1.920 m², Large (>1 m²)

Expand to show TLE details & history

TLE from 1 year ago
0 ASAP-S
1 44875U 19092C   24125.77153734  .23791360  29790-5  34134-3 0  9991
2 44875  97.8445  63.1975 0011122 227.1037 192.4774 16.48338510243346
Epoch: 2024-05-04T18:31Z
TLE epoch observation values (Epoch: 2024-05-04T18:31:00.826Z)
Latitude
58.76117°
Longitude
-90.74141°
Altitude
160.804 km
Speed
7.811 km/s
True Right ascension
03h 20m 34s
True Declination
58° 35' 40"
Sunlit
Object was in daylight at epoch
Visualization orbit readout
Visualization observer readout
Orbital elements
Apogee altitude
147.782 km
Perigee altitude
133.282 km
Semi-major axis
6,518.669 km
Eccentricity
0.00111
Inclination
97.8445°
RAAN
63.1975°
Arg. of periapsis
227.1037°
True anomaly
Unknown
Mean anomaly
192.4774°
Eccentric anomaly
Unknown
Mean motion
4.12387 °/min
Orbital period
87.3 mins
BSTAR
0.00034134
Loading maneuver chart data...
Loading SW <> Apogee altitude chart data...
Loading historical data...
Loading historical data...
Loading historical data...
Loading historical data...
Loading historical data...
Loading historical data...
Loading historical data...
Other satellites on launch #92 in the year 2019 (2019-12-18 UTC)

ASAP-S Visibility forecast

Observer location: undefined°, undefined°

Span
Click to sort rows by Start time (UTC) header in descending order
Start Az.
Max El. time (UTC)
Max El. Az.
Max El.
End time (UTC)
End Az.
4 mins2025-07-02 00:30:33.832Z49.312° ENE2025-07-02 00:32:33.832Z359.008° N35.282°2025-07-02 00:34:33.832Z295.887° NW
|